Fortuna, CA

11:16 AM PST on November 20, 2019 (GMT -0800)
Rohnerville

Weather History for KFOT - July, 2019

Change the Weather History Date:

Saturday, July 13, 2019

  Actual Average (WUND) Record (WUND)
Temperature  
Mean Temperature 62 °F -  
Max Temperature 68 °F - - (-1)
Min Temperature 55 °F - - (-1)
Degree Days  
Heating Degree Days 4    
Growing Degree Days 12 (Base 50)    
Moisture  
Dew Point 56 °F    
Average Humidity 87    
Maximum Humidity 100    
Minimum Humidity 68    
Precipitation  
Precipitation 0.00 in - - ()
Sea Level Pressure  
Sea Level Pressure 30.01 in    
Wind  
Wind Speed 8 mph (WNW)    
Max Wind Speed 20 mph    
Max Gust Speed 24 mph    
Visibility 9 miles    
Events      
Averages and records for this station are not official NWS values.
T = Trace of Precipitation, MM = Missing Value Source: NWS Daily Summary

Daily Weather History Graph

Daily Weather History Graph

Search for Another Location

Airport or City:

Astronomy

Jul. 13, 2019 Rise Set
Actual Time 5:57 AM PDT 8:47 PM PDT
Civil Twilight 5:24 AM PDT 9:19 PM PDT
Nautical Twilight 4:43 AM PDT 10:00 PM PDT
Astronomical Twilight 3:56 AM PDT 10:46 PM PDT
Moon 6:15 PM PDT (7/13) 3:21 AM PDT (7/13)
Length of Visible Light 15h 54m
Length of Day
14h 50m
Waxing Gibbous, 90% of the Moon is Illuminated
Jul 13
Waxing Gibbous
Jul 16
Full
Jul 24
Last Quarter
Jul 31
New
Aug 7
First Quarter

Hourly Weather History & Observations

Time (PDT) Temp. Dew Point Humidity Pressure Visibility Wind Dir Wind Speed Gust Speed Precip Events Conditions
12:10 AM 57.2 °F 55.4 °F 94% 30.02 in 10.0 mi NW 3.5 mph - N/A   Overcast
12:30 AM 57.2 °F 55.4 °F 94% 30.01 in 10.0 mi NW 5.8 mph - N/A   Overcast
12:50 AM 57.2 °F 55.4 °F 94% 30.01 in 10.0 mi NW 6.9 mph - N/A   Overcast
1:10 AM 57.2 °F 55.4 °F 94% 30.01 in 10.0 mi NW 5.8 mph - N/A   Overcast
1:30 AM 57.2 °F 55.4 °F 94% 30.01 in 10.0 mi NW 5.8 mph - N/A   Overcast
1:50 AM 57.2 °F 55.4 °F 94% 30.00 in 10.0 mi NW 6.9 mph - N/A   Overcast
2:10 AM 57.2 °F 55.4 °F 94% 30.00 in 10.0 mi WNW 8.1 mph - N/A   Overcast
2:30 AM 57.2 °F 55.4 °F 94% 30.00 in 10.0 mi NW 6.9 mph - N/A   Overcast
2:50 AM 57.2 °F 55.4 °F 94% 30.00 in 10.0 mi NW 10.4 mph - N/A   Overcast
3:10 AM 57.2 °F 55.4 °F 94% 30.00 in 10.0 mi WNW 8.1 mph - N/A   Overcast
3:30 AM 57.2 °F 55.4 °F 94% 29.99 in 9.0 mi WNW 8.1 mph - N/A   Overcast
3:50 AM 57.2 °F 55.4 °F 94% 29.99 in 8.0 mi WNW 5.8 mph - N/A   Overcast
4:10 AM 57.2 °F 55.4 °F 94% 29.99 in 10.0 mi WNW 5.8 mph - N/A   Overcast
4:30 AM 57.2 °F 55.4 °F 94% 29.99 in 10.0 mi NW 3.5 mph - N/A   Overcast
4:50 AM 57.2 °F 55.4 °F 94% 29.98 in 10.0 mi West 3.5 mph - N/A   Overcast
5:10 AM 57.2 °F 55.4 °F 94% 29.98 in 10.0 mi WNW 3.5 mph - N/A   Overcast
5:30 AM 57.2 °F 55.4 °F 94% 29.99 in 8.0 mi WNW 6.9 mph - N/A   Overcast
5:50 AM 57.2 °F 55.4 °F 94% 29.99 in 7.0 mi WNW 6.9 mph - N/A   Overcast
6:10 AM 55.4 °F 55.4 °F 100% 29.99 in 3.0 mi WNW 4.6 mph - N/A   Overcast
6:30 AM 57.2 °F 55.4 °F 94% 29.99 in 5.0 mi WNW 3.5 mph - N/A   Overcast
6:50 AM 57.2 °F 55.4 °F 94% 29.99 in 10.0 mi West 3.5 mph - N/A   Overcast
7:10 AM 57.2 °F 55.4 °F 94% 29.99 in 10.0 mi WNW 4.6 mph - N/A   Overcast
7:30 AM 57.2 °F 55.4 °F 94% 30.00 in 9.0 mi WNW 4.6 mph - N/A   Overcast
7:50 AM 57.2 °F 55.4 °F 94% 30.00 in 7.0 mi West 4.6 mph - N/A   Overcast
8:10 AM 55.4 °F 55.4 °F 100% 30.01 in 6.0 mi WNW 6.9 mph - N/A   Overcast
8:30 AM 55.4 °F 55.4 °F 100% 30.01 in 2.0 mi WNW 5.8 mph - N/A   Overcast
8:50 AM 55.4 °F 55.4 °F 100% 30.01 in 2.5 mi West 6.9 mph - N/A   Overcast
9:10 AM 55.4 °F 55.4 °F 100% 30.01 in 1.8 mi NNW 4.6 mph - N/A   Overcast
9:30 AM 57.2 °F 55.4 °F 94% 30.01 in 4.0 mi NW 5.8 mph - N/A   Overcast
9:50 AM 57.2 °F 55.4 °F 94% 30.01 in 10.0 mi NNW 3.5 mph - N/A   Overcast
10:10 AM 59.0 °F 55.4 °F 88% 30.01 in 10.0 mi North 5.8 mph - N/A   Overcast
10:30 AM 59.0 °F 57.2 °F 94% 30.01 in 10.0 mi West 3.5 mph - N/A   Overcast
10:50 AM 62.6 °F 57.2 °F 82% 30.01 in 10.0 mi North 4.6 mph - N/A   Mostly Cloudy
11:10 AM 64.4 °F 57.2 °F 77% 30.01 in 10.0 mi NW 8.1 mph - N/A   Partly Cloudy
11:30 AM 66.2 °F 57.2 °F 73% 30.01 in 10.0 mi WNW 9.2 mph - N/A   Clear
11:50 AM 66.2 °F 59.0 °F 78% 30.01 in 10.0 mi WNW 9.2 mph - N/A   Mostly Cloudy
12:10 PM 66.2 °F 59.0 °F 78% 30.01 in 10.0 mi NW 11.5 mph - N/A   Scattered Clouds
12:30 PM 66.2 °F 59.0 °F 78% 30.01 in 10.0 mi WNW 13.8 mph - N/A   Partly Cloudy
12:50 PM 66.2 °F 59.0 °F 78% 30.01 in 10.0 mi WNW 13.8 mph - N/A   Partly Cloudy
1:10 PM 66.2 °F 59.0 °F 78% 30.02 in 10.0 mi WNW 15.0 mph - N/A   Scattered Clouds
1:30 PM 64.4 °F 57.2 °F 77% 30.01 in 10.0 mi West 19.6 mph 24.2 mph N/A   Scattered Clouds
1:50 PM 66.2 °F 57.2 °F 73% 30.02 in 10.0 mi WNW 13.8 mph 19.6 mph N/A   Scattered Clouds
2:10 PM 66.2 °F 57.2 °F 73% 30.01 in 10.0 mi WNW 15.0 mph 20.7 mph N/A   Partly Cloudy
2:30 PM 66.2 °F 57.2 °F 73% 30.01 in 10.0 mi West 16.1 mph 19.6 mph N/A   Scattered Clouds
2:50 PM 66.2 °F 57.2 °F 73% 30.01 in 10.0 mi West 15.0 mph 20.7 mph N/A   Partly Cloudy
3:10 PM 68.0 °F 57.2 °F 68% 30.01 in 10.0 mi West 16.1 mph 20.7 mph N/A   Scattered Clouds
3:30 PM 66.2 °F 57.2 °F 73% 30.01 in 10.0 mi WNW 16.1 mph 21.9 mph N/A   Partly Cloudy
3:50 PM 66.2 °F 57.2 °F 73% 30.01 in 10.0 mi West 15.0 mph 23.0 mph N/A   Partly Cloudy
4:10 PM 66.2 °F 57.2 °F 73% 30.01 in 10.0 mi West 15.0 mph 21.9 mph N/A   Clear
4:30 PM 66.2 °F 57.2 °F 73% 30.01 in 10.0 mi West 15.0 mph - N/A   Clear
4:50 PM 64.4 °F 57.2 °F 77% 30.00 in 10.0 mi West 16.1 mph - N/A   Clear
5:10 PM 66.2 °F 57.2 °F 73% 30.00 in 10.0 mi WNW 15.0 mph 21.9 mph N/A   Clear
5:30 PM 64.4 °F 57.2 °F 77% 30.00 in 10.0 mi WNW 17.3 mph 21.9 mph N/A   Clear
6:10 PM 62.6 °F 57.2 °F 82% 30.00 in 10.0 mi West 16.1 mph - N/A   Clear
6:30 PM 62.6 °F 57.2 °F 82% 30.01 in 10.0 mi West 18.4 mph - N/A   Clear
6:50 PM 62.6 °F 57.2 °F 82% 30.01 in 10.0 mi West 16.1 mph - N/A   Clear
7:10 PM 60.8 °F 55.4 °F 82% 30.02 in 10.0 mi WNW 13.8 mph - N/A   Scattered Clouds
7:30 PM 59.0 °F 55.4 °F 88% 30.02 in 10.0 mi West 13.8 mph - N/A   Partly Cloudy
7:50 PM 59.0 °F 57.2 °F 94% 30.02 in 10.0 mi West 11.5 mph - N/A   Mostly Cloudy
8:10 PM 59.0 °F 57.2 °F 94% 30.02 in 10.0 mi West 11.5 mph - N/A   Overcast
8:30 PM 59.0 °F 57.2 °F 94% 30.02 in 10.0 mi WNW 12.7 mph - N/A   Overcast
8:50 PM 59.0 °F 57.2 °F 94% 30.03 in 10.0 mi WNW 10.4 mph - N/A   Overcast
9:10 PM 59.0 °F 55.4 °F 88% 30.03 in 10.0 mi WNW 9.2 mph - N/A   Overcast
9:30 PM 59.0 °F 55.4 °F 88% 30.04 in 10.0 mi WNW 8.1 mph - N/A   Overcast
9:50 PM 59.0 °F 55.4 °F 88% 30.04 in 10.0 mi WNW 6.9 mph - N/A   Overcast
10:10 PM 59.0 °F 55.4 °F 88% 30.05 in 10.0 mi NW 5.8 mph - N/A   Overcast
10:30 PM 59.0 °F 55.4 °F 88% 30.04 in 10.0 mi NW 5.8 mph - N/A   Overcast
10:50 PM 59.0 °F 55.4 °F 88% 30.04 in 10.0 mi NW 5.8 mph - N/A   Overcast
11:10 PM 59.0 °F 55.4 °F 88% 30.04 in 10.0 mi NW 6.9 mph - N/A   Overcast
11:30 PM 59.0 °F 55.4 °F 88% 30.05 in 10.0 mi NW 5.8 mph - N/A   Overcast
11:50 PM 57.2 °F 55.4 °F 94% 30.05 in 10.0 mi NW 6.9 mph - N/A   Overcast